When you browse on this site, cookies collect data to enhance your experience and personalize the content and advertising you see.
Visit our Privacy Policy to learn more. By continuing to use the site, you agree to this use of cookies and data.
  • In Spain
  • List of Countries
  • For 7 days
  • Water Temperature
  • Satellite Maps
  • Weather Map
  • Weather Widgets
  • user-avatar
    Login

    Hourly Weather Osiek

    Today, 16 June, Sunday

    Time Temperature Precipitation Wind Pressure Humidity
    00:00 +24°C° 0 mm 1 mps 751 mmHg 82%
    01:00 +23°C° 0 mm 1 mps 751 mmHg 84%
    02:00 +23°C° 0 mm 1 mps 751 mmHg 84%
    03:00 +22°C° 0 mm 1 mps 750 mmHg 85%
    04:00 +22°C° 0 mm 1 mps 750 mmHg 85%
    05:00 +23°C° 0 mm 1 mps 751 mmHg 82%
    06:00 +25°C° 0 mm 1 mps 751 mmHg 78%
    07:00 +26°C° 0 mm 2 mps 751 mmHg 75%
    08:00 +28°C° 0 mm 2 mps 751 mmHg 70%
    09:00 +29°C° 0 mm 2 mps 751 mmHg 66%
    10:00 +30°C° 0 mm 2 mps 751 mmHg 61%
    11:00 +31°C° 0 mm 2 mps 751 mmHg 57%
    12:00 +32°C° 0 mm 2 mps 751 mmHg 52%
    13:00 +33°C° 0 mm 1 mps 751 mmHg 48%
    14:00 +34°C° 0 mm 2 mps 751 mmHg 49%
    15:00 +34°C° 0 mm 2 mps 751 mmHg 51%
    16:00 +34°C° 0 mm 2 mps 751 mmHg 52%
    17:00 +30°C° 1.7 mm 3 mps 751 mmHg 64%
    18:00 +26°C° 1.7 mm 4 mps 752 mmHg 76%
    19:00 +21°C° 1.7 mm 5 mps 752 mmHg 88%
    20:00 +21°C° 3.9 mm 5 mps 752 mmHg 90%
    21:00 +21°C° 3.9 mm 5 mps 753 mmHg 91%
    22:00 +22°C° 3.9 mm 5 mps 753 mmHg 93%
    23:00 +21°C° 3.9 mm 5 mps 753 mmHg 92%

    Tomorrow, 17 June, Monday

    Time Temperature Precipitation Wind Pressure Humidity
    00:00 +20°C° 3.9 mm 6 mps 754 mmHg 90%
    01:00 +20°C° 3.9 mm 6 mps 754 mmHg 89%
    02:00 +19°C° 0.1 mm 5 mps 754 mmHg 91%
    03:00 +19°C° 0.1 mm 4 mps 753 mmHg 93%
    04:00 +19°C° 0.1 mm 2 mps 753 mmHg 95%
    05:00 +20°C° 0.2 mm 2 mps 754 mmHg 93%
    06:00 +20°C° 0.2 mm 2 mps 754 mmHg 92%
    07:00 +21°C° 0.2 mm 2 mps 754 mmHg 90%
    08:00 +22°C° 0 mm 3 mps 754 mmHg 88%
    09:00 +24°C° 0 mm 3 mps 754 mmHg 85%
    10:00 +24°C° 0 mm 3 mps 754 mmHg 82%
    11:00 +25°C° 0 mm 3 mps 754 mmHg 80%
    12:00 +26°C° 0 mm 2 mps 754 mmHg 77%
    13:00 +27°C° 0 mm 2 mps 754 mmHg 74%
    14:00 +27°C° 0.1 mm 2 mps 754 mmHg 74%
    15:00 +27°C° 0.1 mm 2 mps 753 mmHg 74%
    16:00 +27°C° 0.1 mm 2 mps 753 mmHg 74%
    17:00 +26°C° 1.1 mm 3 mps 753 mmHg 78%
    18:00 +25°C° 1.1 mm 3 mps 753 mmHg 83%
    19:00 +23°C° 1.1 mm 4 mps 753 mmHg 88%
    20:00 +22°C° 0.5 mm 3 mps 753 mmHg 90%
    21:00 +21°C° 0.5 mm 3 mps 753 mmHg 91%
    22:00 +21°C° 0.5 mm 2 mps 753 mmHg 93%
    23:00 +20°C° 0 mm 2 mps 753 mmHg 94%

    Day after tomorrow, 18 June, Tuesday

    Time Temperature Precipitation Wind Pressure Humidity
    00:00 +20°C° 0 mm 2 mps 753 mmHg 95%
    01:00 +19°C° 0 mm 2 mps 753 mmHg 96%
    02:00 +19°C° 0 mm 2 mps 753 mmHg 96%
    03:00 +19°C° 0 mm 2 mps 753 mmHg 96%
    04:00 +18°C° 0 mm 2 mps 753 mmHg 96%
    05:00 +19°C° 0 mm 2 mps 753 mmHg 94%
    06:00 +20°C° 0 mm 2 mps 754 mmHg 92%
    07:00 +21°C° 0 mm 2 mps 754 mmHg 90%
    08:00 +23°C° 0 mm 2 mps 754 mmHg 85%
    09:00 +25°C° 0 mm 2 mps 754 mmHg 81%
    10:00 +26°C° 0 mm 2 mps 754 mmHg 76%
    11:00 +27°C° 0 mm 1 mps 754 mmHg 73%
    12:00 +28°C° 0 mm 1 mps 753 mmHg 69%
    13:00 +27°C° 0 mm 0 mps 753 mmHg 66%
    14:00 +27°C° 0.1 mm 0 mps 753 mmHg 65%
    15:00 +27°C° 0.1 mm 0 mps 752 mmHg 65%
    16:00 +27°C° 0.1 mm 0 mps 752 mmHg 64%
    17:00 +26°C° 1.9 mm 0 mps 752 mmHg 70%
    18:00 +26°C° 1.9 mm 1 mps 752 mmHg 76%
    19:00 +25°C° 1.9 mm 1 mps 752 mmHg 82%
    20:00 +24°C° 0.5 mm 1 mps 752 mmHg 82%
    21:00 +23°C° 0.5 mm 1 mps 752 mmHg 82%
    22:00 +23°C° 0.5 mm 1 mps 752 mmHg 82%
    23:00 +20°C° 0.1 mm 0 mps 752 mmHg 84%

    19 June, Wednesday

    Time Temperature Precipitation Wind Pressure Humidity
    00:00 +20°C° 0.1 mm 0 mps 752 mmHg 85%
    01:00 +19°C° 0.1 mm 0 mps 752 mmHg 87%
    02:00 +21°C° 0 mm 1 mps 751 mmHg 87%
    03:00 +20°C° 0 mm 1 mps 751 mmHg 88%
    04:00 +20°C° 0 mm 1 mps 751 mmHg 89%
    05:00 +21°C° 0 mm 1 mps 751 mmHg 86%
    06:00 +21°C° 0 mm 0 mps 752 mmHg 83%
    07:00 +22°C° 0 mm 0 mps 752 mmHg 80%
    08:00 +25°C° 0.1 mm 1 mps 752 mmHg 76%
    09:00 +26°C° 0.1 mm 1 mps 751 mmHg 73%
    10:00 +28°C° 0.1 mm 1 mps 751 mmHg 70%
    11:00 +28°C° 0.7 mm 2 mps 751 mmHg 67%
    12:00 +29°C° 0.7 mm 2 mps 750 mmHg 65%
    13:00 +30°C° 0.7 mm 2 mps 750 mmHg 62%
    14:00 +30°C° 0.3 mm 2 mps 750 mmHg 62%
    15:00 +30°C° 0.3 mm 2 mps 750 mmHg 62%
    16:00 +30°C° 0.3 mm 1 mps 749 mmHg 62%
    17:00 +29°C° 0.1 mm 1 mps 749 mmHg 66%
    18:00 +28°C° 0.1 mm 1 mps 749 mmHg 70%
    19:00 +24°C° 0.1 mm 0 mps 749 mmHg 75%
    20:00 +25°C° 0.1 mm 1 mps 750 mmHg 77%
    21:00 +24°C° 0.1 mm 1 mps 750 mmHg 80%
    22:00 +23°C° 0.1 mm 1 mps 750 mmHg 82%
    23:00 +23°C° 0.1 mm 1 mps 750 mmHg 84%

    20 June, Thursday

    Time Temperature Precipitation Wind Pressure Humidity
    00:00 +22°C° 0.1 mm 1 mps 750 mmHg 85%
    01:00 +22°C° 0.1 mm 1 mps 750 mmHg 87%
    02:00 +22°C° 0 mm 1 mps 750 mmHg 88%
    03:00 +22°C° 0 mm 1 mps 750 mmHg 89%
    04:00 +21°C° 0 mm 1 mps 750 mmHg 89%
    05:00 +22°C° 0.1 mm 1 mps 750 mmHg 88%
    06:00 +23°C° 0.1 mm 1 mps 750 mmHg 87%
    07:00 +24°C° 0.1 mm 2 mps 751 mmHg 85%
    08:00 +25°C° 0.8 mm 2 mps 750 mmHg 82%
    09:00 +26°C° 0.8 mm 2 mps 750 mmHg 79%
    10:00 +27°C° 0.8 mm 2 mps 750 mmHg 75%
    11:00 +28°C° 0.4 mm 2 mps 750 mmHg 70%
    12:00 +29°C° 0.4 mm 2 mps 750 mmHg 66%
    13:00 +29°C° 0.4 mm 1 mps 750 mmHg 61%
    14:00 +29°C° 0 mm 1 mps 750 mmHg 60%
    15:00 +30°C° 0 mm 1 mps 750 mmHg 60%
    16:00 +30°C° 0 mm 1 mps 749 mmHg 59%
    17:00 +29°C° 0 mm 1 mps 750 mmHg 64%
    18:00 +27°C° 0 mm 1 mps 750 mmHg 69%
    19:00 +26°C° 0 mm 1 mps 750 mmHg 74%
    20:00 +25°C° 0 mm 1 mps 750 mmHg 75%
    21:00 +24°C° 0 mm 1 mps 750 mmHg 76%
    22:00 +23°C° 0 mm 2 mps 750 mmHg 77%
    23:00 +23°C° 0.1 mm 1 mps 750 mmHg 80%

    21 June, Friday

    Time Temperature Precipitation Wind Pressure Humidity
    00:00 +22°C° 0.1 mm 1 mps 750 mmHg 83%
    01:00 +22°C° 0.1 mm 1 mps 750 mmHg 87%
    02:00 +21°C° 0.5 mm 1 mps 750 mmHg 88%
    03:00 +21°C° 0.5 mm 1 mps 750 mmHg 89%
    04:00 +21°C° 0.5 mm 1 mps 751 mmHg 90%
    05:00 +22°C° 0.6 mm 1 mps 751 mmHg 88%
    06:00 +23°C° 0.6 mm 1 mps 751 mmHg 85%
    07:00 +24°C° 0.6 mm 1 mps 751 mmHg 83%
    08:00 +25°C° 0 mm 2 mps 751 mmHg 78%
    09:00 +27°C° 0 mm 2 mps 751 mmHg 72%
    10:00 +28°C° 0 mm 3 mps 751 mmHg 67%
    11:00 +29°C° 0 mm 2 mps 751 mmHg 64%
    12:00 +29°C° 0 mm 2 mps 751 mmHg 61%
    13:00 +30°C° 0 mm 2 mps 751 mmHg 58%
    14:00 +30°C° 0 mm 2 mps 751 mmHg 57%
    15:00 +30°C° 0 mm 1 mps 751 mmHg 56%
    16:00 +30°C° 0 mm 1 mps 751 mmHg 56%
    17:00 +29°C° 0 mm 1 mps 751 mmHg 61%
    18:00 +28°C° 0 mm 1 mps 751 mmHg 66%
    19:00 +26°C° 0 mm 1 mps 751 mmHg 71%
    20:00 +25°C° 0 mm 1 mps 751 mmHg 74%
    21:00 +24°C° 0 mm 1 mps 752 mmHg 77%
    22:00 +23°C° 0 mm 1 mps 752 mmHg 80%
    23:00 +23°C° 0 mm 1 mps 752 mmHg 82%
    Show more